Date,TemperatureHighF,TemperatureAvgF,TemperatureLowF,DewpointHighF,DewpointAvgF,DewpointLowF,HumidityHigh,HumidityAvg,HumidityLow,PressureMaxIn,PressureMinIn,WindSpeedMaxMPH,WindSpeedAvgMPH,GustSpeedMaxMPH,PrecipitationSumIn
2013-3-1,64,62,58,58,52,47,84,72,60,29.98,29.89,5,1,0,0.00
2013-3-2,65,58,51,49,43,36,76,59,43,30.03,29.95,13,4,0,0.00
2013-3-3,61,54,49,47,43,40,88,68,50,30.14,29.95,8,2,0,0.00
2013-3-4,68,54,42,47,37,29,85,57,26,30.20,30.11,12,2,0,0.00
2013-3-5,78,63,48,58,53,45,93,72,47,30.17,30.07,10,2,0,0.00
2013-3-6,78,65,52,64,52,31,94,68,31,30.09,29.94,15,2,0,0.01
2013-3-7,73,58,46,56,45,36,90,63,40,30.18,30.06,7,2,0,0.00
2013-3-8,76,62,51,54,51,44,93,69,32,30.20,30.09,5,1,0,0.00
2013-3-9,76,64,53,58,54,50,92,70,50,30.18,30.09,8,2,0,0.00
2013-3-10,76,70,64,61,57,53,74,63,52,30.14,30.06,9,3,0,0.00
2013-3-11,78,72,68,63,61,59,78,69,54,30.10,29.95,11,3,0,0.00
2013-3-12,82,74,70,70,66,62,87,76,63,29.99,29.90,11,2,0,0.00
2013-3-13,75,66,56,66,55,44,93,70,35,30.11,29.97,10,2,0,0.00
2013-3-14,72,61,53,54,47,39,89,64,32,30.20,30.08,10,3,0,0.00
2013-3-15,73,62,51,55,50,45,82,66,42,30.25,30.14,5,2,0,0.00
2013-3-16,76,65,53,58,54,52,97,71,45,30.19,30.08,7,2,0,0.00
2013-3-17,77,68,57,62,59,55,94,75,54,30.14,30.02,12,2,0,0.00
2013-3-18,80,72,64,70,66,61,96,82,67,30.06,29.95,12,3,0,0.25
2013-3-19,80,73,68,70,68,66,96,85,66,30.00,29.80,9,1,0,0.00
2013-3-20,87,73,64,70,65,60,98,79,49,29.96,29.80,5,1,0,0.00
2013-3-21,75,67,58,62,54,39,93,67,28,29.94,29.82,6,2,0,0.00
2013-3-22,76,68,55,70,60,54,96,79,58,30.00,29.89,14,3,0,0.01
2013-3-23,89,78,71,75,72,69,97,83,54,29.98,29.79,15,2,0,0.03
2013-3-24,90,80,72,74,72,67,96,79,55,29.88,29.68,9,3,0,0.02
2013-3-25,78,73,64,73,60,43,95,68,37,29.98,29.74,8,2,0,0.01
2013-3-26,66,60,52,45,39,34,68,48,33,30.20,29.98,10,4,0,0.00
2013-3-27,69,57,45,48,42,35,80,59,36,30.25,30.16,9,2,0,0.00
2013-3-28,74,60,48,51,45,36,84,61,31,30.26,30.16,8,2,0,0.00
2013-3-29,75,64,54,54,50,45,76,61,44,30.28,30.19,7,1,0,0.00
2013-3-30,76,66,56,57,53,47,93,65,39,30.26,30.16,6,1,0,0.00
2013-3-31,81,70,59,67,62,55,94,75,56,30.18,30.04,10,3,0,0.00